• In Portugal
  • List of Countries
  • For 7 days
  • Water Temperature
  • Satellite Maps
  • Weather Map
  • Weather Widgets
  • user-avatar
    Login

    Hourly Weather Mochudi

    Today, 20 June, Wednesday

    Time Temperature Precipitation Wind Pressure Humidity
    00:00 +18°C° 0 mm 1 mps 682 mmHg 21%
    01:00 +16°C° 0 mm 1 mps 682 mmHg 21%
    02:00 +16°C° 0 mm 1 mps 682 mmHg 22%
    03:00 +15°C° 0 mm 1 mps 682 mmHg 22%
    04:00 +14°C° 0 mm 0 mps 682 mmHg 23%
    05:00 +13°C° 0 mm 0 mps 682 mmHg 24%
    06:00 +14°C° 0 mm 0 mps 683 mmHg 24%
    07:00 +14°C° 0 mm 0 mps 683 mmHg 24%
    08:00 +15°C° 0 mm 0 mps 683 mmHg 24%
    09:00 +18°C° 0 mm 0 mps 684 mmHg 20%
    10:00 +23°C° 0 mm 1 mps 685 mmHg 17%
    11:00 +26°C° 0 mm 1 mps 686 mmHg 13%
    12:00 +27°C° 0 mm 1 mps 685 mmHg 12%
    13:00 +28°C° 0 mm 2 mps 685 mmHg 11%
    14:00 +29°C° 0 mm 2 mps 685 mmHg 10%
    15:00 +28°C° 0 mm 2 mps 684 mmHg 10%
    16:00 +27°C° 0 mm 2 mps 684 mmHg 11%
    17:00 +26°C° 0 mm 1 mps 684 mmHg 11%
    18:00 +24°C° 0 mm 1 mps 684 mmHg 12%
    19:00 +22°C° 0 mm 1 mps 684 mmHg 14%
    20:00 +20°C° 0 mm 1 mps 684 mmHg 15%
    21:00 +20°C° 0 mm 1 mps 684 mmHg 17%
    22:00 +18°C° 0 mm 2 mps 685 mmHg 19%
    23:00 +17°C° 0 mm 2 mps 685 mmHg 21%

    Tomorrow, 21 June, Thursday

    Time Temperature Precipitation Wind Pressure Humidity
    00:00 +16°C° 0 mm 2 mps 685 mmHg 27%
    01:00 +15°C° 0 mm 2 mps 685 mmHg 32%
    02:00 +14°C° 0 mm 2 mps 685 mmHg 38%
    03:00 +14°C° 0 mm 2 mps 685 mmHg 46%
    04:00 +13°C° 0 mm 2 mps 685 mmHg 54%
    05:00 +12°C° 0 mm 2 mps 685 mmHg 62%
    06:00 +13°C° 0 mm 2 mps 686 mmHg 66%
    07:00 +13°C° 0 mm 2 mps 686 mmHg 69%
    08:00 +13°C° 0 mm 2 mps 687 mmHg 72%
    09:00 +16°C° 0 mm 3 mps 687 mmHg 64%
    10:00 +18°C° 0 mm 3 mps 688 mmHg 56%
    11:00 +21°C° 0 mm 4 mps 688 mmHg 48%
    12:00 +22°C° 0 mm 4 mps 688 mmHg 42%
    13:00 +23°C° 0 mm 4 mps 687 mmHg 37%
    14:00 +26°C° 0 mm 3 mps 687 mmHg 31%
    15:00 +25°C° 0 mm 3 mps 686 mmHg 31%
    16:00 +25°C° 0 mm 2 mps 686 mmHg 32%
    17:00 +24°C° 0 mm 2 mps 686 mmHg 32%
    18:00 +21°C° 0 mm 2 mps 686 mmHg 37%
    19:00 +19°C° 0 mm 2 mps 686 mmHg 42%
    20:00 +19°C° 0 mm 1 mps 686 mmHg 47%
    21:00 +18°C° 0 mm 1 mps 686 mmHg 50%
    22:00 +16°C° 0 mm 1 mps 686 mmHg 54%
    23:00 +16°C° 0 mm 1 mps 686 mmHg 57%

    Day after tomorrow, 22 June, Friday

    Time Temperature Precipitation Wind Pressure Humidity
    00:00 +15°C° 0 mm 1 mps 686 mmHg 59%
    01:00 +15°C° 0 mm 1 mps 686 mmHg 62%
    02:00 +13°C° 0 mm 0 mps 685 mmHg 65%
    03:00 +13°C° 0 mm 0 mps 685 mmHg 67%
    04:00 +13°C° 0 mm 1 mps 685 mmHg 70%
    05:00 +13°C° 0 mm 1 mps 685 mmHg 72%
    06:00 +13°C° 0 mm 1 mps 685 mmHg 71%
    07:00 +14°C° 0 mm 1 mps 686 mmHg 69%
    08:00 +14°C° 0 mm 1 mps 686 mmHg 68%
    09:00 +18°C° 0 mm 1 mps 687 mmHg 59%
    10:00 +20°C° 0 mm 1 mps 687 mmHg 51%
    11:00 +23°C° 0 mm 2 mps 688 mmHg 42%
    12:00 +24°C° 0 mm 2 mps 687 mmHg 36%
    13:00 +25°C° 0 mm 2 mps 687 mmHg 31%
    14:00 +26°C° 0 mm 2 mps 686 mmHg 25%
    15:00 +26°C° 0 mm 2 mps 686 mmHg 25%
    16:00 +25°C° 0 mm 2 mps 685 mmHg 25%
    17:00 +24°C° 0 mm 1 mps 685 mmHg 25%
    18:00 +23°C° 0 mm 1 mps 685 mmHg 28%
    19:00 +21°C° 0 mm 1 mps 685 mmHg 32%
    20:00 +17°C° 0 mm 0 mps 685 mmHg 35%
    21:00 +17°C° 0 mm 0 mps 685 mmHg 36%
    22:00 +16°C° 0 mm 0 mps 685 mmHg 37%
    23:00 +16°C° 0 mm 0 mps 685 mmHg 38%

    23 June, Saturday

    Time Temperature Precipitation Wind Pressure Humidity
    00:00 +15°C° 0 mm 0 mps 685 mmHg 40%
    01:00 +15°C° 0 mm 0 mps 685 mmHg 41%
    02:00 +15°C° 0 mm 1 mps 684 mmHg 42%
    03:00 +15°C° 0 mm 1 mps 684 mmHg 43%
    04:00 +14°C° 0 mm 1 mps 684 mmHg 45%
    05:00 +13°C° 0 mm 1 mps 684 mmHg 46%
    06:00 +14°C° 0 mm 1 mps 685 mmHg 46%
    07:00 +14°C° 0 mm 1 mps 685 mmHg 46%
    08:00 +14°C° 0 mm 1 mps 686 mmHg 46%
    09:00 +17°C° 0 mm 2 mps 686 mmHg 42%
    10:00 +19°C° 0 mm 2 mps 687 mmHg 38%
    11:00 +22°C° 0 mm 3 mps 687 mmHg 34%
    12:00 +24°C° 0 mm 2 mps 686 mmHg 31%
    13:00 +25°C° 0 mm 2 mps 686 mmHg 28%
    14:00 +26°C° 0 mm 2 mps 685 mmHg 25%
    15:00 +25°C° 0 mm 1 mps 685 mmHg 26%
    16:00 +25°C° 0 mm 1 mps 685 mmHg 26%
    17:00 +24°C° 0 mm 1 mps 684 mmHg 27%
    18:00 +22°C° 0 mm 1 mps 684 mmHg 30%
    19:00 +21°C° 0 mm 1 mps 684 mmHg 34%
    20:00 +19°C° 0 mm 1 mps 684 mmHg 37%
    21:00 +18°C° 0 mm 1 mps 684 mmHg 39%
    22:00 +18°C° 0 mm 1 mps 684 mmHg 41%
    23:00 +15°C° 0 mm 0 mps 684 mmHg 43%

    24 June, Sunday

    Time Temperature Precipitation Wind Pressure Humidity
    00:00 +16°C° 0 mm 1 mps 684 mmHg 46%
    01:00 +15°C° 0 mm 1 mps 684 mmHg 49%
    02:00 +15°C° 0 mm 1 mps 684 mmHg 52%
    03:00 +14°C° 0 mm 1 mps 683 mmHg 55%
    04:00 +13°C° 0 mm 1 mps 683 mmHg 59%
    05:00 +12°C° 0 mm 0 mps 683 mmHg 63%
    06:00 +12°C° 0 mm 0 mps 684 mmHg 62%
    07:00 +13°C° 0 mm 0 mps 684 mmHg 61%
    08:00 +13°C° 0 mm 0 mps 684 mmHg 59%
    09:00 +16°C° 0 mm 0 mps 685 mmHg 51%
    10:00 +19°C° 0 mm 0 mps 686 mmHg 43%
    11:00 +24°C° 0 mm 1 mps 686 mmHg 34%
    12:00 +25°C° 0 mm 1 mps 686 mmHg 30%
    13:00 +26°C° 0 mm 1 mps 685 mmHg 26%
    14:00 +27°C° 0 mm 1 mps 684 mmHg 22%
    15:00 +26°C° 0 mm 1 mps 684 mmHg 23%
    16:00 +25°C° 0 mm 1 mps 684 mmHg 23%
    17:00 +25°C° 0 mm 1 mps 684 mmHg 23%
    18:00 +23°C° 0 mm 1 mps 684 mmHg 27%
    19:00 +21°C° 0 mm 1 mps 684 mmHg 30%
    20:00 +19°C° 0 mm 1 mps 684 mmHg 33%
    21:00 +17°C° 0 mm 0 mps 684 mmHg 34%
    22:00 +16°C° 0 mm 0 mps 684 mmHg 36%
    23:00 +16°C° 0 mm 0 mps 684 mmHg 37%

    25 June, Monday

    Time Temperature Precipitation Wind Pressure Humidity
    00:00 +15°C° 0 mm 0 mps 683 mmHg 38%
    01:00 +15°C° 0 mm 0 mps 683 mmHg 39%
    02:00 +14°C° 0 mm 0 mps 683 mmHg 40%
    03:00 +15°C° 0 mm 1 mps 683 mmHg 41%
    04:00 +14°C° 0 mm 1 mps 683 mmHg 43%
    05:00 +14°C° 0 mm 1 mps 683 mmHg 44%
    06:00 +14°C° 0 mm 1 mps 683 mmHg 44%
    07:00 +15°C° 0 mm 1 mps 684 mmHg 44%
    08:00 +15°C° 0 mm 1 mps 684 mmHg 43%
    09:00 +17°C° 0 mm 2 mps 684 mmHg 39%
    10:00 +20°C° 0 mm 2 mps 684 mmHg 34%
    11:00 +24°C° 0 mm 3 mps 685 mmHg 29%
    12:00 +25°C° 0 mm 3 mps 684 mmHg 26%
    13:00 +26°C° 0 mm 4 mps 683 mmHg 23%
    14:00 +26°C° 0 mm 4 mps 683 mmHg 21%
    15:00 +26°C° 0 mm 3 mps 682 mmHg 21%
    16:00 +25°C° 0 mm 3 mps 682 mmHg 21%
    17:00 +25°C° 0 mm 2 mps 681 mmHg 22%
    18:00 +23°C° 0 mm 2 mps 681 mmHg 25%
    19:00 +20°C° 0 mm 2 mps 681 mmHg 27%
    20:00 +18°C° 0 mm 2 mps 681 mmHg 30%
    21:00 +17°C° 0 mm 2 mps 681 mmHg 32%
    22:00 +17°C° 0 mm 2 mps 681 mmHg 34%
    23:00 +16°C° 0 mm 2 mps 681 mmHg 36%
    Show more